Index of /20260505/WXO-DD/model_gdps/15km/00/006
Name Last modified Size Description
Parent Directory -
20260505T00Z_MSC_GDPS_AbsoluteVorticity_IsbL-0200_LatLon0.15_PT006H.grib2 2026-05-05 03:50 1.5M
20260505T00Z_MSC_GDPS_AbsoluteVorticity_IsbL-0250_LatLon0.15_PT006H.grib2 2026-05-05 03:50 1.3M
20260505T00Z_MSC_GDPS_AbsoluteVorticity_IsbL-0500_LatLon0.15_PT006H.grib2 2026-05-05 03:50 1.5M
20260505T00Z_MSC_GDPS_AbsoluteVorticity_IsbL-0700_LatLon0.15_PT006H.grib2 2026-05-05 03:50 1.6M
20260505T00Z_MSC_GDPS_AbsoluteVorticity_IsbL-0850_LatLon0.15_PT006H.grib2 2026-05-05 03:50 1.6M
20260505T00Z_MSC_GDPS_AirTemp-Max_AGL-2m_LatLon0.15_PT006H.grib2 2026-05-05 03:50 728K
20260505T00Z_MSC_GDPS_AirTemp-Min_AGL-2m_LatLon0.15_PT006H.grib2 2026-05-05 03:50 777K
20260505T00Z_MSC_GDPS_AirTemp_AGL-120m_LatLon0.15_PT006H.grib2 2026-05-05 03:50 893K
20260505T00Z_MSC_GDPS_AirTemp_AGL-2m_LatLon0.15_PT006H.grib2 2026-05-05 03:50 1.0M
20260505T00Z_MSC_GDPS_AirTemp_AGL-40m_LatLon0.15_PT006H.grib2 2026-05-05 03:50 795K
20260505T00Z_MSC_GDPS_AirTemp_AGL-80m_LatLon0.15_PT006H.grib2 2026-05-05 03:50 900K
20260505T00Z_MSC_GDPS_AirTemp_IsbL-0001_LatLon0.15_PT006H.grib2 2026-05-05 03:50 656K
20260505T00Z_MSC_GDPS_AirTemp_IsbL-0005_LatLon0.15_PT006H.grib2 2026-05-05 03:50 686K
20260505T00Z_MSC_GDPS_AirTemp_IsbL-0010_LatLon0.15_PT006H.grib2 2026-05-05 03:50 695K
20260505T00Z_MSC_GDPS_AirTemp_IsbL-0020_LatLon0.15_PT006H.grib2 2026-05-05 03:50 785K
20260505T00Z_MSC_GDPS_AirTemp_IsbL-0030_LatLon0.15_PT006H.grib2 2026-05-05 03:50 836K
20260505T00Z_MSC_GDPS_AirTemp_IsbL-0050_LatLon0.15_PT006H.grib2 2026-05-05 03:50 811K
20260505T00Z_MSC_GDPS_AirTemp_IsbL-0100_LatLon0.15_PT006H.grib2 2026-05-05 03:50 1.0M
20260505T00Z_MSC_GDPS_AirTemp_IsbL-0150_LatLon0.15_PT006H.grib2 2026-05-05 03:50 962K
20260505T00Z_MSC_GDPS_AirTemp_IsbL-0175_LatLon0.15_PT006H.grib2 2026-05-05 03:50 950K
20260505T00Z_MSC_GDPS_AirTemp_IsbL-0200_LatLon0.15_PT006H.grib2 2026-05-05 03:50 1.0M
20260505T00Z_MSC_GDPS_AirTemp_IsbL-0225_LatLon0.15_PT006H.grib2 2026-05-05 03:50 966K
20260505T00Z_MSC_GDPS_AirTemp_IsbL-0250_LatLon0.15_PT006H.grib2 2026-05-05 03:50 1.0M
20260505T00Z_MSC_GDPS_AirTemp_IsbL-0275_LatLon0.15_PT006H.grib2 2026-05-05 03:50 1.0M
20260505T00Z_MSC_GDPS_AirTemp_IsbL-0300_LatLon0.15_PT006H.grib2 2026-05-05 03:50 1.0M
20260505T00Z_MSC_GDPS_AirTemp_IsbL-0350_LatLon0.15_PT006H.grib2 2026-05-05 03:50 927K
20260505T00Z_MSC_GDPS_AirTemp_IsbL-0400_LatLon0.15_PT006H.grib2 2026-05-05 03:50 941K
20260505T00Z_MSC_GDPS_AirTemp_IsbL-0450_LatLon0.15_PT006H.grib2 2026-05-05 03:50 963K
20260505T00Z_MSC_GDPS_AirTemp_IsbL-0500_LatLon0.15_PT006H.grib2 2026-05-05 03:50 1.0M
20260505T00Z_MSC_GDPS_AirTemp_IsbL-0550_LatLon0.15_PT006H.grib2 2026-05-05 03:50 796K
20260505T00Z_MSC_GDPS_AirTemp_IsbL-0600_LatLon0.15_PT006H.grib2 2026-05-05 03:50 883K
20260505T00Z_MSC_GDPS_AirTemp_IsbL-0650_LatLon0.15_PT006H.grib2 2026-05-05 03:50 912K
20260505T00Z_MSC_GDPS_AirTemp_IsbL-0700_LatLon0.15_PT006H.grib2 2026-05-05 03:50 945K
20260505T00Z_MSC_GDPS_AirTemp_IsbL-0750_LatLon0.15_PT006H.grib2 2026-05-05 03:50 1.0M
20260505T00Z_MSC_GDPS_AirTemp_IsbL-0800_LatLon0.15_PT006H.grib2 2026-05-05 03:50 1.1M
20260505T00Z_MSC_GDPS_AirTemp_IsbL-0850_LatLon0.15_PT006H.grib2 2026-05-05 03:50 1.1M
20260505T00Z_MSC_GDPS_AirTemp_IsbL-0875_LatLon0.15_PT006H.grib2 2026-05-05 03:50 1.1M
20260505T00Z_MSC_GDPS_AirTemp_IsbL-0900_LatLon0.15_PT006H.grib2 2026-05-05 03:50 1.1M
20260505T00Z_MSC_GDPS_AirTemp_IsbL-0925_LatLon0.15_PT006H.grib2 2026-05-05 03:50 1.1M
20260505T00Z_MSC_GDPS_AirTemp_IsbL-0950_LatLon0.15_PT006H.grib2 2026-05-05 03:50 1.1M
20260505T00Z_MSC_GDPS_AirTemp_IsbL-0970_LatLon0.15_PT006H.grib2 2026-05-05 03:50 1.1M
20260505T00Z_MSC_GDPS_AirTemp_IsbL-0985_LatLon0.15_PT006H.grib2 2026-05-05 03:50 1.1M
20260505T00Z_MSC_GDPS_AirTemp_IsbL-1000_LatLon0.15_PT006H.grib2 2026-05-05 03:50 1.1M
20260505T00Z_MSC_GDPS_AirTemp_IsbL-1015_LatLon0.15_PT006H.grib2 2026-05-05 03:50 1.1M
20260505T00Z_MSC_GDPS_Albedo_Sfc_LatLon0.15_PT006H.grib2 2026-05-05 03:50 244K
20260505T00Z_MSC_GDPS_CAPE_Sfc_LatLon0.15_PT006H.grib2 2026-05-05 03:50 3.9M
20260505T00Z_MSC_GDPS_CIN_Sfc_LatLon0.15_PT006H.grib2 2026-05-05 03:50 3.0M
20260505T00Z_MSC_GDPS_CloudWater_EAtm_LatLon0.15_PT006H.grib2 2026-05-05 03:50 523K
20260505T00Z_MSC_GDPS_ConvectivePrecip-Accum_Sfc_LatLon0.15_PT006H.grib2 2026-05-05 03:50 1.5M
20260505T00Z_MSC_GDPS_DewPointDepression_AGL-2m_LatLon0.15_PT006H.grib2 2026-05-05 03:50 767K
20260505T00Z_MSC_GDPS_DewPointDepression_IsbL-0010_LatLon0.15_PT006H.grib2 2026-05-05 03:50 78K
20260505T00Z_MSC_GDPS_DewPointDepression_IsbL-0020_LatLon0.15_PT006H.grib2 2026-05-05 03:50 73K
20260505T00Z_MSC_GDPS_DewPointDepression_IsbL-0030_LatLon0.15_PT006H.grib2 2026-05-05 03:50 86K
20260505T00Z_MSC_GDPS_DewPointDepression_IsbL-0050_LatLon0.15_PT006H.grib2 2026-05-05 03:50 387K
20260505T00Z_MSC_GDPS_DewPointDepression_IsbL-0100_LatLon0.15_PT006H.grib2 2026-05-05 03:50 405K
20260505T00Z_MSC_GDPS_DewPointDepression_IsbL-0150_LatLon0.15_PT006H.grib2 2026-05-05 03:50 483K
20260505T00Z_MSC_GDPS_DewPointDepression_IsbL-0175_LatLon0.15_PT006H.grib2 2026-05-05 03:50 590K
20260505T00Z_MSC_GDPS_DewPointDepression_IsbL-0200_LatLon0.15_PT006H.grib2 2026-05-05 03:50 689K
20260505T00Z_MSC_GDPS_DewPointDepression_IsbL-0225_LatLon0.15_PT006H.grib2 2026-05-05 03:50 785K
20260505T00Z_MSC_GDPS_DewPointDepression_IsbL-0250_LatLon0.15_PT006H.grib2 2026-05-05 03:50 874K
20260505T00Z_MSC_GDPS_DewPointDepression_IsbL-0275_LatLon0.15_PT006H.grib2 2026-05-05 03:50 892K
20260505T00Z_MSC_GDPS_DewPointDepression_IsbL-0300_LatLon0.15_PT006H.grib2 2026-05-05 03:50 931K
20260505T00Z_MSC_GDPS_DewPointDepression_IsbL-0350_LatLon0.15_PT006H.grib2 2026-05-05 03:50 949K
20260505T00Z_MSC_GDPS_DewPointDepression_IsbL-0400_LatLon0.15_PT006H.grib2 2026-05-05 03:50 1.0M
20260505T00Z_MSC_GDPS_DewPointDepression_IsbL-0450_LatLon0.15_PT006H.grib2 2026-05-05 03:50 1.0M
20260505T00Z_MSC_GDPS_DewPointDepression_IsbL-0500_LatLon0.15_PT006H.grib2 2026-05-05 03:50 1.0M
20260505T00Z_MSC_GDPS_DewPointDepression_IsbL-0550_LatLon0.15_PT006H.grib2 2026-05-05 03:50 1.0M
20260505T00Z_MSC_GDPS_DewPointDepression_IsbL-0600_LatLon0.15_PT006H.grib2 2026-05-05 03:50 1.0M
20260505T00Z_MSC_GDPS_DewPointDepression_IsbL-0650_LatLon0.15_PT006H.grib2 2026-05-05 03:50 1.0M
20260505T00Z_MSC_GDPS_DewPointDepression_IsbL-0700_LatLon0.15_PT006H.grib2 2026-05-05 03:50 1.0M
20260505T00Z_MSC_GDPS_DewPointDepression_IsbL-0750_LatLon0.15_PT006H.grib2 2026-05-05 03:50 1.1M
20260505T00Z_MSC_GDPS_DewPointDepression_IsbL-0800_LatLon0.15_PT006H.grib2 2026-05-05 03:50 1.1M
20260505T00Z_MSC_GDPS_DewPointDepression_IsbL-0850_LatLon0.15_PT006H.grib2 2026-05-05 03:50 1.1M
20260505T00Z_MSC_GDPS_DewPointDepression_IsbL-0875_LatLon0.15_PT006H.grib2 2026-05-05 03:50 1.1M
20260505T00Z_MSC_GDPS_DewPointDepression_IsbL-0900_LatLon0.15_PT006H.grib2 2026-05-05 03:50 1.0M
20260505T00Z_MSC_GDPS_DewPointDepression_IsbL-0925_LatLon0.15_PT006H.grib2 2026-05-05 03:50 1.0M
20260505T00Z_MSC_GDPS_DewPointDepression_IsbL-0950_LatLon0.15_PT006H.grib2 2026-05-05 03:50 1.0M
20260505T00Z_MSC_GDPS_DewPointDepression_IsbL-0970_LatLon0.15_PT006H.grib2 2026-05-05 03:50 1.0M
20260505T00Z_MSC_GDPS_DewPointDepression_IsbL-0985_LatLon0.15_PT006H.grib2 2026-05-05 03:50 1.0M
20260505T00Z_MSC_GDPS_DewPointDepression_IsbL-1000_LatLon0.15_PT006H.grib2 2026-05-05 03:50 971K
20260505T00Z_MSC_GDPS_DewPointDepression_IsbL-1015_LatLon0.15_PT006H.grib2 2026-05-05 03:50 915K
20260505T00Z_MSC_GDPS_DewPoint_AGL-2m_LatLon0.15_PT006H.grib2 2026-05-05 03:50 599K
20260505T00Z_MSC_GDPS_DownwardLongwaveRadiationFlux-Accum_Sfc_LatLon0.15_PT006H.grib2 2026-05-05 03:50 1.1M
20260505T00Z_MSC_GDPS_DownwardShortwaveRadiationFlux-Accum_NTAtm_LatLon0.15_PT006H.grib2 2026-05-05 03:50 223K
20260505T00Z_MSC_GDPS_DownwardShortwaveRadiationFlux-Accum_Sfc_LatLon0.15_PT006H.grib2 2026-05-05 03:50 791K
20260505T00Z_MSC_GDPS_FreezingRain-Accum1h_Sfc_LatLon0.15_PT006H.grib2 2026-05-05 03:50 26K
20260505T00Z_MSC_GDPS_FreezingRain-Accum3h_Sfc_LatLon0.15_PT006H.grib2 2026-05-05 03:50 32K
20260505T00Z_MSC_GDPS_FreezingRain-Accum6h_Sfc_LatLon0.15_PT006H.grib2 2026-05-05 03:50 50K
20260505T00Z_MSC_GDPS_FreezingRain-Accum_Sfc_LatLon0.15_PT006H.grib2 2026-05-05 03:50 57K
20260505T00Z_MSC_GDPS_GeopotentialHeight_IsbL-0001_LatLon0.15_PT006H.grib2 2026-05-05 03:50 432K
20260505T00Z_MSC_GDPS_GeopotentialHeight_IsbL-0005_LatLon0.15_PT006H.grib2 2026-05-05 03:50 484K
20260505T00Z_MSC_GDPS_GeopotentialHeight_IsbL-0010_LatLon0.15_PT006H.grib2 2026-05-05 03:50 472K
20260505T00Z_MSC_GDPS_GeopotentialHeight_IsbL-0020_LatLon0.15_PT006H.grib2 2026-05-05 03:50 411K
20260505T00Z_MSC_GDPS_GeopotentialHeight_IsbL-0030_LatLon0.15_PT006H.grib2 2026-05-05 03:50 567K
20260505T00Z_MSC_GDPS_GeopotentialHeight_IsbL-0050_LatLon0.15_PT006H.grib2 2026-05-05 03:50 569K
20260505T00Z_MSC_GDPS_GeopotentialHeight_IsbL-0100_LatLon0.15_PT006H.grib2 2026-05-05 03:50 603K
20260505T00Z_MSC_GDPS_GeopotentialHeight_IsbL-0150_LatLon0.15_PT006H.grib2 2026-05-05 03:50 619K
20260505T00Z_MSC_GDPS_GeopotentialHeight_IsbL-0175_LatLon0.15_PT006H.grib2 2026-05-05 03:50 622K
20260505T00Z_MSC_GDPS_GeopotentialHeight_IsbL-0200_LatLon0.15_PT006H.grib2 2026-05-05 03:50 628K
20260505T00Z_MSC_GDPS_GeopotentialHeight_IsbL-0225_LatLon0.15_PT006H.grib2 2026-05-05 03:50 632K
20260505T00Z_MSC_GDPS_GeopotentialHeight_IsbL-0250_LatLon0.15_PT006H.grib2 2026-05-05 03:50 633K
20260505T00Z_MSC_GDPS_GeopotentialHeight_IsbL-0275_LatLon0.15_PT006H.grib2 2026-05-05 03:50 637K
20260505T00Z_MSC_GDPS_GeopotentialHeight_IsbL-0300_LatLon0.15_PT006H.grib2 2026-05-05 03:50 636K
20260505T00Z_MSC_GDPS_GeopotentialHeight_IsbL-0350_LatLon0.15_PT006H.grib2 2026-05-05 03:50 626K
20260505T00Z_MSC_GDPS_GeopotentialHeight_IsbL-0400_LatLon0.15_PT006H.grib2 2026-05-05 03:50 619K
20260505T00Z_MSC_GDPS_GeopotentialHeight_IsbL-0450_LatLon0.15_PT006H.grib2 2026-05-05 03:50 611K
20260505T00Z_MSC_GDPS_GeopotentialHeight_IsbL-0500_LatLon0.15_PT006H.grib2 2026-05-05 03:50 603K
20260505T00Z_MSC_GDPS_GeopotentialHeight_IsbL-0550_LatLon0.15_PT006H.grib2 2026-05-05 03:50 524K
20260505T00Z_MSC_GDPS_GeopotentialHeight_IsbL-0600_LatLon0.15_PT006H.grib2 2026-05-05 03:50 522K
20260505T00Z_MSC_GDPS_GeopotentialHeight_IsbL-0650_LatLon0.15_PT006H.grib2 2026-05-05 03:50 688K
20260505T00Z_MSC_GDPS_GeopotentialHeight_IsbL-0700_LatLon0.15_PT006H.grib2 2026-05-05 03:50 684K
20260505T00Z_MSC_GDPS_GeopotentialHeight_IsbL-0750_LatLon0.15_PT006H.grib2 2026-05-05 03:50 694K
20260505T00Z_MSC_GDPS_GeopotentialHeight_IsbL-0800_LatLon0.15_PT006H.grib2 2026-05-05 03:50 705K
20260505T00Z_MSC_GDPS_GeopotentialHeight_IsbL-0850_LatLon0.15_PT006H.grib2 2026-05-05 03:50 712K
20260505T00Z_MSC_GDPS_GeopotentialHeight_IsbL-0875_LatLon0.15_PT006H.grib2 2026-05-05 03:50 716K
20260505T00Z_MSC_GDPS_GeopotentialHeight_IsbL-0900_LatLon0.15_PT006H.grib2 2026-05-05 03:50 725K
20260505T00Z_MSC_GDPS_GeopotentialHeight_IsbL-0925_LatLon0.15_PT006H.grib2 2026-05-05 03:50 731K
20260505T00Z_MSC_GDPS_GeopotentialHeight_IsbL-0950_LatLon0.15_PT006H.grib2 2026-05-05 03:50 737K
20260505T00Z_MSC_GDPS_GeopotentialHeight_IsbL-0970_LatLon0.15_PT006H.grib2 2026-05-05 03:50 750K
20260505T00Z_MSC_GDPS_GeopotentialHeight_IsbL-0985_LatLon0.15_PT006H.grib2 2026-05-05 03:50 765K
20260505T00Z_MSC_GDPS_GeopotentialHeight_IsbL-1000_LatLon0.15_PT006H.grib2 2026-05-05 03:50 784K
20260505T00Z_MSC_GDPS_GeopotentialHeight_IsbL-1015_LatLon0.15_PT006H.grib2 2026-05-05 03:50 806K
20260505T00Z_MSC_GDPS_Humidex_Sfc_LatLon0.15_PT006H.grib2 2026-05-05 03:50 5.3M
20260505T00Z_MSC_GDPS_IcePellets-Accum1h_Sfc_LatLon0.15_PT006H.grib2 2026-05-05 03:50 15K
20260505T00Z_MSC_GDPS_IcePellets-Accum3h_Sfc_LatLon0.15_PT006H.grib2 2026-05-05 03:50 17K
20260505T00Z_MSC_GDPS_IcePellets-Accum6h_Sfc_LatLon0.15_PT006H.grib2 2026-05-05 03:50 23K
20260505T00Z_MSC_GDPS_IcePellets-Accum_Sfc_LatLon0.15_PT006H.grib2 2026-05-05 03:50 25K
20260505T00Z_MSC_GDPS_KIndex_Sfc_LatLon0.15_PT006H.grib2 2026-05-05 03:50 6.3M
20260505T00Z_MSC_GDPS_LatentHeatNetFlux_Sfc_LatLon0.15_PT006H.grib2 2026-05-05 03:50 548K
20260505T00Z_MSC_GDPS_LiftedIndex-MU-VT_IsbL-0500_LatLon0.15_PT006H.grib2 2026-05-05 03:50 5.4M
20260505T00Z_MSC_GDPS_NetLongwaveRadiationFlux-Accum_Sfc_LatLon0.15_PT006H.grib2 2026-05-05 03:50 1.2M
20260505T00Z_MSC_GDPS_NetShortwaveRadiationFlux-Accum_Sfc_LatLon0.15_PT006H.grib2 2026-05-05 03:50 749K
20260505T00Z_MSC_GDPS_O3MixingRatio_Sfc_LatLon0.15_PT006H.grib2 2026-05-05 04:44 2.0M
20260505T00Z_MSC_GDPS_O3_EAtm_LatLon0.15_PT006H.grib2 2026-05-05 04:44 2.5M
20260505T00Z_MSC_GDPS_PlanetaryBoundaryLayerHeight_Sfc_LatLon0.15_PT006H.grib2 2026-05-05 03:50 2.5M
20260505T00Z_MSC_GDPS_Precip-Accum1h_Sfc_LatLon0.15_PT006H.grib2 2026-05-05 03:50 3.1M
20260505T00Z_MSC_GDPS_Precip-Accum3h_Sfc_LatLon0.15_PT006H.grib2 2026-05-05 03:50 3.3M
20260505T00Z_MSC_GDPS_Precip-Accum6h_Sfc_LatLon0.15_PT006H.grib2 2026-05-05 03:50 3.7M
20260505T00Z_MSC_GDPS_Precip-Accum_Sfc_LatLon0.15_PT006H.grib2 2026-05-05 03:50 3.6M
20260505T00Z_MSC_GDPS_PrecipRate_Sfc_LatLon0.15_PT006H.grib2 2026-05-05 03:50 3.0M
20260505T00Z_MSC_GDPS_PrecipType-Instant_Sfc_LatLon0.15_PT006H.grib2 2026-05-05 03:50 1.5M
20260505T00Z_MSC_GDPS_Pressure_MSL_LatLon0.15_PT006H.grib2 2026-05-05 03:50 817K
20260505T00Z_MSC_GDPS_Pressure_PVU-1.5_LatLon0.15_PT006H.grib2 2026-05-05 03:50 5.8M
20260505T00Z_MSC_GDPS_Pressure_PVU-1_LatLon0.15_PT006H.grib2 2026-05-05 03:50 6.0M
20260505T00Z_MSC_GDPS_Pressure_PVU-2_LatLon0.15_PT006H.grib2 2026-05-05 03:50 6.0M
20260505T00Z_MSC_GDPS_Pressure_Sfc_LatLon0.15_PT006H.grib2 2026-05-05 03:50 1.1M
20260505T00Z_MSC_GDPS_RadiativeTemp_Sfc_LatLon0.15_PT006H.grib2 2026-05-05 03:50 488K
20260505T00Z_MSC_GDPS_Rain-Accum1h_Sfc_LatLon0.15_PT006H.grib2 2026-05-05 03:50 1.6M
20260505T00Z_MSC_GDPS_Rain-Accum3h_Sfc_LatLon0.15_PT006H.grib2 2026-05-05 03:50 1.7M
20260505T00Z_MSC_GDPS_Rain-Accum6h_Sfc_LatLon0.15_PT006H.grib2 2026-05-05 03:50 2.3M
20260505T00Z_MSC_GDPS_Rain-Accum_Sfc_LatLon0.15_PT006H.grib2 2026-05-05 03:50 2.5M
20260505T00Z_MSC_GDPS_RelativeHumidity_AGL-2m_LatLon0.15_PT006H.grib2 2026-05-05 03:50 1.0M
20260505T00Z_MSC_GDPS_RelativeHumidity_IsbL-0010_LatLon0.15_PT006H.grib2 2026-05-05 03:50 151K
20260505T00Z_MSC_GDPS_RelativeHumidity_IsbL-0020_LatLon0.15_PT006H.grib2 2026-05-05 03:50 181K
20260505T00Z_MSC_GDPS_RelativeHumidity_IsbL-0030_LatLon0.15_PT006H.grib2 2026-05-05 03:50 278K
20260505T00Z_MSC_GDPS_RelativeHumidity_IsbL-0050_LatLon0.15_PT006H.grib2 2026-05-05 03:50 527K
20260505T00Z_MSC_GDPS_RelativeHumidity_IsbL-0100_LatLon0.15_PT006H.grib2 2026-05-05 03:50 519K
20260505T00Z_MSC_GDPS_RelativeHumidity_IsbL-0150_LatLon0.15_PT006H.grib2 2026-05-05 03:50 667K
20260505T00Z_MSC_GDPS_RelativeHumidity_IsbL-0175_LatLon0.15_PT006H.grib2 2026-05-05 03:50 789K
20260505T00Z_MSC_GDPS_RelativeHumidity_IsbL-0200_LatLon0.15_PT006H.grib2 2026-05-05 03:50 696K
20260505T00Z_MSC_GDPS_RelativeHumidity_IsbL-0225_LatLon0.15_PT006H.grib2 2026-05-05 03:50 776K
20260505T00Z_MSC_GDPS_RelativeHumidity_IsbL-0250_LatLon0.15_PT006H.grib2 2026-05-05 03:50 856K
20260505T00Z_MSC_GDPS_RelativeHumidity_IsbL-0275_LatLon0.15_PT006H.grib2 2026-05-05 03:50 882K
20260505T00Z_MSC_GDPS_RelativeHumidity_IsbL-0300_LatLon0.15_PT006H.grib2 2026-05-05 03:50 924K
20260505T00Z_MSC_GDPS_RelativeHumidity_IsbL-0350_LatLon0.15_PT006H.grib2 2026-05-05 03:50 942K
20260505T00Z_MSC_GDPS_RelativeHumidity_IsbL-0400_LatLon0.15_PT006H.grib2 2026-05-05 03:50 968K
20260505T00Z_MSC_GDPS_RelativeHumidity_IsbL-0450_LatLon0.15_PT006H.grib2 2026-05-05 03:50 1.0M
20260505T00Z_MSC_GDPS_RelativeHumidity_IsbL-0500_LatLon0.15_PT006H.grib2 2026-05-05 03:50 1.0M
20260505T00Z_MSC_GDPS_RelativeHumidity_IsbL-0550_LatLon0.15_PT006H.grib2 2026-05-05 03:50 1.1M
20260505T00Z_MSC_GDPS_RelativeHumidity_IsbL-0600_LatLon0.15_PT006H.grib2 2026-05-05 03:50 1.1M
20260505T00Z_MSC_GDPS_RelativeHumidity_IsbL-0650_LatLon0.15_PT006H.grib2 2026-05-05 03:50 1.1M
20260505T00Z_MSC_GDPS_RelativeHumidity_IsbL-0700_LatLon0.15_PT006H.grib2 2026-05-05 03:50 1.1M
20260505T00Z_MSC_GDPS_RelativeHumidity_IsbL-0750_LatLon0.15_PT006H.grib2 2026-05-05 03:50 1.2M
20260505T00Z_MSC_GDPS_RelativeHumidity_IsbL-0800_LatLon0.15_PT006H.grib2 2026-05-05 03:50 1.2M
20260505T00Z_MSC_GDPS_RelativeHumidity_IsbL-0850_LatLon0.15_PT006H.grib2 2026-05-05 03:50 1.3M
20260505T00Z_MSC_GDPS_RelativeHumidity_IsbL-0875_LatLon0.15_PT006H.grib2 2026-05-05 03:50 1.3M
20260505T00Z_MSC_GDPS_RelativeHumidity_IsbL-0900_LatLon0.15_PT006H.grib2 2026-05-05 03:50 1.3M
20260505T00Z_MSC_GDPS_RelativeHumidity_IsbL-0925_LatLon0.15_PT006H.grib2 2026-05-05 03:50 1.2M
20260505T00Z_MSC_GDPS_RelativeHumidity_IsbL-0950_LatLon0.15_PT006H.grib2 2026-05-05 03:50 1.2M
20260505T00Z_MSC_GDPS_RelativeHumidity_IsbL-0970_LatLon0.15_PT006H.grib2 2026-05-05 03:50 1.2M
20260505T00Z_MSC_GDPS_RelativeHumidity_IsbL-0985_LatLon0.15_PT006H.grib2 2026-05-05 03:50 1.1M
20260505T00Z_MSC_GDPS_RelativeHumidity_IsbL-1000_LatLon0.15_PT006H.grib2 2026-05-05 03:50 1.1M
20260505T00Z_MSC_GDPS_RelativeHumidity_IsbL-1015_LatLon0.15_PT006H.grib2 2026-05-05 03:50 1.0M
20260505T00Z_MSC_GDPS_RelativeVorticity_IsbL-0200_LatLon0.15_PT006H.grib2 2026-05-05 03:50 1.5M
20260505T00Z_MSC_GDPS_RelativeVorticity_IsbL-0250_LatLon0.15_PT006H.grib2 2026-05-05 03:50 1.6M
20260505T00Z_MSC_GDPS_RelativeVorticity_IsbL-0500_LatLon0.15_PT006H.grib2 2026-05-05 03:50 1.5M
20260505T00Z_MSC_GDPS_RelativeVorticity_IsbL-0700_LatLon0.15_PT006H.grib2 2026-05-05 03:50 1.6M
20260505T00Z_MSC_GDPS_RelativeVorticity_IsbL-0850_LatLon0.15_PT006H.grib2 2026-05-05 03:50 1.6M
20260505T00Z_MSC_GDPS_Runoff-Accum_Sfc_LatLon0.15_PT006H.grib2 2026-05-05 03:50 71K
20260505T00Z_MSC_GDPS_SensibleHeatNetFlux_Sfc_LatLon0.15_PT006H.grib2 2026-05-05 03:50 658K
20260505T00Z_MSC_GDPS_ShowalterIndex_IsbL-0500_LatLon0.15_PT006H.grib2 2026-05-05 03:50 6.2M
20260505T00Z_MSC_GDPS_Snow-Accum1h_Sfc_LatLon0.15_PT006H.grib2 2026-05-05 03:50 1.0M
20260505T00Z_MSC_GDPS_Snow-Accum3h_Sfc_LatLon0.15_PT006H.grib2 2026-05-05 03:50 1.0M
20260505T00Z_MSC_GDPS_Snow-Accum6h_Sfc_LatLon0.15_PT006H.grib2 2026-05-05 03:50 1.3M
20260505T00Z_MSC_GDPS_Snow-Accum_Sfc_LatLon0.15_PT006H.grib2 2026-05-05 03:50 1.5M
20260505T00Z_MSC_GDPS_SnowDensity_Sfc_LatLon0.15_PT006H.grib2 2026-05-05 03:50 247K
20260505T00Z_MSC_GDPS_SnowDepth_Sfc_LatLon0.15_PT006H.grib2 2026-05-05 03:50 1.7M
20260505T00Z_MSC_GDPS_SoilTemp_DBS-0to10cm_LatLon0.15_PT006H.grib2 2026-05-05 03:50 493K
20260505T00Z_MSC_GDPS_SoilTemp_Sfc_LatLon0.15_PT006H.grib2 2026-05-05 03:50 573K
20260505T00Z_MSC_GDPS_SoilVolumetricIceContent_Sfc_LatLon0.15_PT006H.grib2 2026-05-05 03:50 192K
20260505T00Z_MSC_GDPS_SoilVolumetricWaterContent_DBS-0to10cm_LatLon0.15_PT006H.grib2 2026-05-05 03:50 591K
20260505T00Z_MSC_GDPS_SoilVolumetricWaterContent_DBS-0to1cm_LatLon0.15_PT006H.grib2 2026-05-05 03:50 650K
20260505T00Z_MSC_GDPS_SpecificHumidity_AGL-120m_LatLon0.15_PT006H.grib2 2026-05-05 03:50 1.1M
20260505T00Z_MSC_GDPS_SpecificHumidity_AGL-2m_LatLon0.15_PT006H.grib2 2026-05-05 03:50 1.2M
20260505T00Z_MSC_GDPS_SpecificHumidity_AGL-40m_LatLon0.15_PT006H.grib2 2026-05-05 03:50 1.1M
20260505T00Z_MSC_GDPS_SpecificHumidity_AGL-80m_LatLon0.15_PT006H.grib2 2026-05-05 03:50 1.1M
20260505T00Z_MSC_GDPS_SpecificHumidity_IsbL-0001_LatLon0.15_PT006H.grib2 2026-05-05 03:50 1.1M
20260505T00Z_MSC_GDPS_SpecificHumidity_IsbL-0005_LatLon0.15_PT006H.grib2 2026-05-05 03:50 1.3M
20260505T00Z_MSC_GDPS_SpecificHumidity_IsbL-0010_LatLon0.15_PT006H.grib2 2026-05-05 03:50 1.4M
20260505T00Z_MSC_GDPS_SpecificHumidity_IsbL-0020_LatLon0.15_PT006H.grib2 2026-05-05 03:50 1.4M
20260505T00Z_MSC_GDPS_SpecificHumidity_IsbL-0030_LatLon0.15_PT006H.grib2 2026-05-05 03:50 1.4M
20260505T00Z_MSC_GDPS_SpecificHumidity_IsbL-0050_LatLon0.15_PT006H.grib2 2026-05-05 03:50 1.4M
20260505T00Z_MSC_GDPS_SpecificHumidity_IsbL-0100_LatLon0.15_PT006H.grib2 2026-05-05 03:50 1.4M
20260505T00Z_MSC_GDPS_SpecificHumidity_IsbL-0150_LatLon0.15_PT006H.grib2 2026-05-05 03:50 1.3M
20260505T00Z_MSC_GDPS_SpecificHumidity_IsbL-0175_LatLon0.15_PT006H.grib2 2026-05-05 03:50 1.3M
20260505T00Z_MSC_GDPS_SpecificHumidity_IsbL-0200_LatLon0.15_PT006H.grib2 2026-05-05 03:50 1.3M
20260505T00Z_MSC_GDPS_SpecificHumidity_IsbL-0225_LatLon0.15_PT006H.grib2 2026-05-05 03:50 1.3M
20260505T00Z_MSC_GDPS_SpecificHumidity_IsbL-0250_LatLon0.15_PT006H.grib2 2026-05-05 03:50 1.4M
20260505T00Z_MSC_GDPS_SpecificHumidity_IsbL-0275_LatLon0.15_PT006H.grib2 2026-05-05 03:50 1.3M
20260505T00Z_MSC_GDPS_SpecificHumidity_IsbL-0300_LatLon0.15_PT006H.grib2 2026-05-05 03:50 1.2M
20260505T00Z_MSC_GDPS_SpecificHumidity_IsbL-0350_LatLon0.15_PT006H.grib2 2026-05-05 03:50 1.2M
20260505T00Z_MSC_GDPS_SpecificHumidity_IsbL-0400_LatLon0.15_PT006H.grib2 2026-05-05 03:50 1.4M
20260505T00Z_MSC_GDPS_SpecificHumidity_IsbL-0450_LatLon0.15_PT006H.grib2 2026-05-05 03:50 1.6M
20260505T00Z_MSC_GDPS_SpecificHumidity_IsbL-0500_LatLon0.15_PT006H.grib2 2026-05-05 03:50 1.4M
20260505T00Z_MSC_GDPS_SpecificHumidity_IsbL-0550_LatLon0.15_PT006H.grib2 2026-05-05 03:50 1.6M
20260505T00Z_MSC_GDPS_SpecificHumidity_IsbL-0600_LatLon0.15_PT006H.grib2 2026-05-05 03:50 1.7M
20260505T00Z_MSC_GDPS_SpecificHumidity_IsbL-0650_LatLon0.15_PT006H.grib2 2026-05-05 03:50 1.5M
20260505T00Z_MSC_GDPS_SpecificHumidity_IsbL-0700_LatLon0.15_PT006H.grib2 2026-05-05 03:50 1.6M
20260505T00Z_MSC_GDPS_SpecificHumidity_IsbL-0750_LatLon0.15_PT006H.grib2 2026-05-05 03:50 1.7M
20260505T00Z_MSC_GDPS_SpecificHumidity_IsbL-0800_LatLon0.15_PT006H.grib2 2026-05-05 03:50 1.8M
20260505T00Z_MSC_GDPS_SpecificHumidity_IsbL-0850_LatLon0.15_PT006H.grib2 2026-05-05 03:50 1.9M
20260505T00Z_MSC_GDPS_SpecificHumidity_IsbL-0875_LatLon0.15_PT006H.grib2 2026-05-05 03:50 1.9M
20260505T00Z_MSC_GDPS_SpecificHumidity_IsbL-0900_LatLon0.15_PT006H.grib2 2026-05-05 03:50 1.9M
20260505T00Z_MSC_GDPS_SpecificHumidity_IsbL-0925_LatLon0.15_PT006H.grib2 2026-05-05 03:50 1.6M
20260505T00Z_MSC_GDPS_SpecificHumidity_IsbL-0950_LatLon0.15_PT006H.grib2 2026-05-05 03:50 1.5M
20260505T00Z_MSC_GDPS_SpecificHumidity_IsbL-0970_LatLon0.15_PT006H.grib2 2026-05-05 03:50 1.5M
20260505T00Z_MSC_GDPS_SpecificHumidity_IsbL-0985_LatLon0.15_PT006H.grib2 2026-05-05 03:50 1.5M
20260505T00Z_MSC_GDPS_SpecificHumidity_IsbL-1000_LatLon0.15_PT006H.grib2 2026-05-05 03:50 1.5M
20260505T00Z_MSC_GDPS_SpecificHumidity_IsbL-1015_LatLon0.15_PT006H.grib2 2026-05-05 03:50 1.4M
20260505T00Z_MSC_GDPS_SpecificHumidity_Sfc_LatLon0.15_PT006H.grib2 2026-05-05 03:50 663K
20260505T00Z_MSC_GDPS_Thickness_IsbL-0850to0700_LatLon0.15_PT006H.grib2 2026-05-05 03:50 467K
20260505T00Z_MSC_GDPS_Thickness_IsbL-1000to0500_LatLon0.15_PT006H.grib2 2026-05-05 03:50 371K
20260505T00Z_MSC_GDPS_Thickness_IsbL-1000to0850_LatLon0.15_PT006H.grib2 2026-05-05 03:50 486K
20260505T00Z_MSC_GDPS_TotalCloudCover_Sfc_LatLon0.15_PT006H.grib2 2026-05-05 03:50 821K
20260505T00Z_MSC_GDPS_TotalTotalsIndex_Sfc_LatLon0.15_PT006H.grib2 2026-05-05 03:50 6.2M
20260505T00Z_MSC_GDPS_UVIndex-ClearSky_Sfc_LatLon0.15_PT006H.grib2 2026-05-05 04:44 1.1M
20260505T00Z_MSC_GDPS_UVIndex_Sfc_LatLon0.15_PT006H.grib2 2026-05-05 04:44 1.5M
20260505T00Z_MSC_GDPS_UpwardLongwaveRadiationFlux_NTAtm_LatLon0.15_PT006H.grib2 2026-05-05 03:50 826K
20260505T00Z_MSC_GDPS_VerticalVelocity_IsbL-0200_LatLon0.15_PT006H.grib2 2026-05-05 03:50 1.2M
20260505T00Z_MSC_GDPS_VerticalVelocity_IsbL-0250_LatLon0.15_PT006H.grib2 2026-05-05 03:50 1.0M
20260505T00Z_MSC_GDPS_VerticalVelocity_IsbL-0500_LatLon0.15_PT006H.grib2 2026-05-05 03:50 1.0M
20260505T00Z_MSC_GDPS_VerticalVelocity_IsbL-0600_LatLon0.15_PT006H.grib2 2026-05-05 03:50 1.3M
20260505T00Z_MSC_GDPS_VerticalVelocity_IsbL-0700_LatLon0.15_PT006H.grib2 2026-05-05 03:50 1.4M
20260505T00Z_MSC_GDPS_VerticalVelocity_IsbL-0850_LatLon0.15_PT006H.grib2 2026-05-05 03:50 1.3M
20260505T00Z_MSC_GDPS_WindChill_Sfc_LatLon0.15_PT006H.grib2 2026-05-05 03:50 5.3M
20260505T00Z_MSC_GDPS_WindDir_AGL-10m_LatLon0.15_PT006H.grib2 2026-05-05 03:50 1.3M
20260505T00Z_MSC_GDPS_WindDir_AGL-120m_LatLon0.15_PT006H.grib2 2026-05-05 03:50 1.3M
20260505T00Z_MSC_GDPS_WindDir_AGL-40m_LatLon0.15_PT006H.grib2 2026-05-05 03:50 1.3M
20260505T00Z_MSC_GDPS_WindDir_AGL-80m_LatLon0.15_PT006H.grib2 2026-05-05 03:50 1.3M
20260505T00Z_MSC_GDPS_WindDir_IsbL-0001_LatLon0.15_PT006H.grib2 2026-05-05 03:50 688K
20260505T00Z_MSC_GDPS_WindDir_IsbL-0005_LatLon0.15_PT006H.grib2 2026-05-05 03:50 834K
20260505T00Z_MSC_GDPS_WindDir_IsbL-0010_LatLon0.15_PT006H.grib2 2026-05-05 03:50 859K
20260505T00Z_MSC_GDPS_WindDir_IsbL-0020_LatLon0.15_PT006H.grib2 2026-05-05 03:50 942K
20260505T00Z_MSC_GDPS_WindDir_IsbL-0030_LatLon0.15_PT006H.grib2 2026-05-05 03:50 951K
20260505T00Z_MSC_GDPS_WindDir_IsbL-0050_LatLon0.15_PT006H.grib2 2026-05-05 03:50 958K
20260505T00Z_MSC_GDPS_WindDir_IsbL-0100_LatLon0.15_PT006H.grib2 2026-05-05 03:50 1.0M
20260505T00Z_MSC_GDPS_WindDir_IsbL-0150_LatLon0.15_PT006H.grib2 2026-05-05 03:50 1.0M
20260505T00Z_MSC_GDPS_WindDir_IsbL-0175_LatLon0.15_PT006H.grib2 2026-05-05 03:50 1.0M
20260505T00Z_MSC_GDPS_WindDir_IsbL-0200_LatLon0.15_PT006H.grib2 2026-05-05 03:50 1.1M
20260505T00Z_MSC_GDPS_WindDir_IsbL-0225_LatLon0.15_PT006H.grib2 2026-05-05 03:50 1.1M
20260505T00Z_MSC_GDPS_WindDir_IsbL-0250_LatLon0.15_PT006H.grib2 2026-05-05 03:50 1.1M
20260505T00Z_MSC_GDPS_WindDir_IsbL-0275_LatLon0.15_PT006H.grib2 2026-05-05 03:50 1.2M
20260505T00Z_MSC_GDPS_WindDir_IsbL-0300_LatLon0.15_PT006H.grib2 2026-05-05 03:50 1.2M
20260505T00Z_MSC_GDPS_WindDir_IsbL-0350_LatLon0.15_PT006H.grib2 2026-05-05 03:50 1.2M
20260505T00Z_MSC_GDPS_WindDir_IsbL-0400_LatLon0.15_PT006H.grib2 2026-05-05 03:50 1.3M
20260505T00Z_MSC_GDPS_WindDir_IsbL-0450_LatLon0.15_PT006H.grib2 2026-05-05 03:50 1.3M
20260505T00Z_MSC_GDPS_WindDir_IsbL-0500_LatLon0.15_PT006H.grib2 2026-05-05 03:50 1.3M
20260505T00Z_MSC_GDPS_WindDir_IsbL-0550_LatLon0.15_PT006H.grib2 2026-05-05 03:50 1.4M
20260505T00Z_MSC_GDPS_WindDir_IsbL-0600_LatLon0.15_PT006H.grib2 2026-05-05 03:50 1.4M
20260505T00Z_MSC_GDPS_WindDir_IsbL-0650_LatLon0.15_PT006H.grib2 2026-05-05 03:50 1.5M
20260505T00Z_MSC_GDPS_WindDir_IsbL-0700_LatLon0.15_PT006H.grib2 2026-05-05 03:50 1.6M
20260505T00Z_MSC_GDPS_WindDir_IsbL-0750_LatLon0.15_PT006H.grib2 2026-05-05 03:50 1.7M
20260505T00Z_MSC_GDPS_WindDir_IsbL-0800_LatLon0.15_PT006H.grib2 2026-05-05 03:50 1.8M
20260505T00Z_MSC_GDPS_WindDir_IsbL-0850_LatLon0.15_PT006H.grib2 2026-05-05 03:50 1.9M
20260505T00Z_MSC_GDPS_WindDir_IsbL-0875_LatLon0.15_PT006H.grib2 2026-05-05 03:50 1.9M
20260505T00Z_MSC_GDPS_WindDir_IsbL-0900_LatLon0.15_PT006H.grib2 2026-05-05 03:50 1.9M
20260505T00Z_MSC_GDPS_WindDir_IsbL-0925_LatLon0.15_PT006H.grib2 2026-05-05 03:50 1.9M
20260505T00Z_MSC_GDPS_WindDir_IsbL-0950_LatLon0.15_PT006H.grib2 2026-05-05 03:50 1.9M
20260505T00Z_MSC_GDPS_WindDir_IsbL-0970_LatLon0.15_PT006H.grib2 2026-05-05 03:50 1.9M
20260505T00Z_MSC_GDPS_WindDir_IsbL-0985_LatLon0.15_PT006H.grib2 2026-05-05 03:50 2.0M
20260505T00Z_MSC_GDPS_WindDir_IsbL-1000_LatLon0.15_PT006H.grib2 2026-05-05 03:50 2.0M
20260505T00Z_MSC_GDPS_WindDir_IsbL-1015_LatLon0.15_PT006H.grib2 2026-05-05 03:50 2.0M
20260505T00Z_MSC_GDPS_WindGust-Max_AGL-10m_LatLon0.15_PT006H.grib2 2026-05-05 03:50 1.8M
20260505T00Z_MSC_GDPS_WindGust-Min_AGL-10m_LatLon0.15_PT006H.grib2 2026-05-05 03:50 2.1M
20260505T00Z_MSC_GDPS_WindGust_AGL-10m_LatLon0.15_PT006H.grib2 2026-05-05 03:50 2.1M
20260505T00Z_MSC_GDPS_WindSpeed_AGL-10m_LatLon0.15_PT006H.grib2 2026-05-05 03:50 1.1M
20260505T00Z_MSC_GDPS_WindSpeed_AGL-120m_LatLon0.15_PT006H.grib2 2026-05-05 03:50 1.2M
20260505T00Z_MSC_GDPS_WindSpeed_AGL-40m_LatLon0.15_PT006H.grib2 2026-05-05 03:50 1.2M
20260505T00Z_MSC_GDPS_WindSpeed_AGL-80m_LatLon0.15_PT006H.grib2 2026-05-05 03:50 1.2M
20260505T00Z_MSC_GDPS_WindSpeed_IsbL-0001_LatLon0.15_PT006H.grib2 2026-05-05 03:50 652K
20260505T00Z_MSC_GDPS_WindSpeed_IsbL-0005_LatLon0.15_PT006H.grib2 2026-05-05 03:50 704K
20260505T00Z_MSC_GDPS_WindSpeed_IsbL-0010_LatLon0.15_PT006H.grib2 2026-05-05 03:50 639K
20260505T00Z_MSC_GDPS_WindSpeed_IsbL-0020_LatLon0.15_PT006H.grib2 2026-05-05 03:50 672K
20260505T00Z_MSC_GDPS_WindSpeed_IsbL-0030_LatLon0.15_PT006H.grib2 2026-05-05 03:50 873K
20260505T00Z_MSC_GDPS_WindSpeed_IsbL-0050_LatLon0.15_PT006H.grib2 2026-05-05 03:50 918K
20260505T00Z_MSC_GDPS_WindSpeed_IsbL-0100_LatLon0.15_PT006H.grib2 2026-05-05 03:50 1.1M
20260505T00Z_MSC_GDPS_WindSpeed_IsbL-0150_LatLon0.15_PT006H.grib2 2026-05-05 03:50 935K
20260505T00Z_MSC_GDPS_WindSpeed_IsbL-0175_LatLon0.15_PT006H.grib2 2026-05-05 03:50 1.0M
20260505T00Z_MSC_GDPS_WindSpeed_IsbL-0200_LatLon0.15_PT006H.grib2 2026-05-05 03:50 1.0M
20260505T00Z_MSC_GDPS_WindSpeed_IsbL-0225_LatLon0.15_PT006H.grib2 2026-05-05 03:50 1.1M
20260505T00Z_MSC_GDPS_WindSpeed_IsbL-0250_LatLon0.15_PT006H.grib2 2026-05-05 03:50 1.1M
20260505T00Z_MSC_GDPS_WindSpeed_IsbL-0275_LatLon0.15_PT006H.grib2 2026-05-05 03:50 1.1M
20260505T00Z_MSC_GDPS_WindSpeed_IsbL-0300_LatLon0.15_PT006H.grib2 2026-05-05 03:50 1.1M
20260505T00Z_MSC_GDPS_WindSpeed_IsbL-0350_LatLon0.15_PT006H.grib2 2026-05-05 03:50 1.1M
20260505T00Z_MSC_GDPS_WindSpeed_IsbL-0400_LatLon0.15_PT006H.grib2 2026-05-05 03:50 1.1M
20260505T00Z_MSC_GDPS_WindSpeed_IsbL-0450_LatLon0.15_PT006H.grib2 2026-05-05 03:50 1.1M
20260505T00Z_MSC_GDPS_WindSpeed_IsbL-0500_LatLon0.15_PT006H.grib2 2026-05-05 03:50 1.1M
20260505T00Z_MSC_GDPS_WindSpeed_IsbL-0550_LatLon0.15_PT006H.grib2 2026-05-05 03:50 1.1M
20260505T00Z_MSC_GDPS_WindSpeed_IsbL-0600_LatLon0.15_PT006H.grib2 2026-05-05 03:50 1.1M
20260505T00Z_MSC_GDPS_WindSpeed_IsbL-0650_LatLon0.15_PT006H.grib2 2026-05-05 03:50 1.4M
20260505T00Z_MSC_GDPS_WindSpeed_IsbL-0700_LatLon0.15_PT006H.grib2 2026-05-05 03:50 1.5M
20260505T00Z_MSC_GDPS_WindSpeed_IsbL-0750_LatLon0.15_PT006H.grib2 2026-05-05 03:50 1.5M
20260505T00Z_MSC_GDPS_WindSpeed_IsbL-0800_LatLon0.15_PT006H.grib2 2026-05-05 03:50 1.6M
20260505T00Z_MSC_GDPS_WindSpeed_IsbL-0850_LatLon0.15_PT006H.grib2 2026-05-05 03:50 1.7M
20260505T00Z_MSC_GDPS_WindSpeed_IsbL-0875_LatLon0.15_PT006H.grib2 2026-05-05 03:50 1.5M
20260505T00Z_MSC_GDPS_WindSpeed_IsbL-0900_LatLon0.15_PT006H.grib2 2026-05-05 03:50 1.5M
20260505T00Z_MSC_GDPS_WindSpeed_IsbL-0925_LatLon0.15_PT006H.grib2 2026-05-05 03:50 1.8M
20260505T00Z_MSC_GDPS_WindSpeed_IsbL-0950_LatLon0.15_PT006H.grib2 2026-05-05 03:50 1.8M
20260505T00Z_MSC_GDPS_WindSpeed_IsbL-0970_LatLon0.15_PT006H.grib2 2026-05-05 03:50 1.8M
20260505T00Z_MSC_GDPS_WindSpeed_IsbL-0985_LatLon0.15_PT006H.grib2 2026-05-05 03:50 1.9M
20260505T00Z_MSC_GDPS_WindSpeed_IsbL-1000_LatLon0.15_PT006H.grib2 2026-05-05 03:50 1.9M
20260505T00Z_MSC_GDPS_WindSpeed_IsbL-1015_LatLon0.15_PT006H.grib2 2026-05-05 03:50 1.8M
20260505T00Z_MSC_GDPS_WindU_AGL-10m_LatLon0.15_PT006H.grib2 2026-05-05 03:50 1.3M
20260505T00Z_MSC_GDPS_WindU_AGL-120m_LatLon0.15_PT006H.grib2 2026-05-05 03:50 1.0M
20260505T00Z_MSC_GDPS_WindU_AGL-40m_LatLon0.15_PT006H.grib2 2026-05-05 03:50 956K
20260505T00Z_MSC_GDPS_WindU_AGL-80m_LatLon0.15_PT006H.grib2 2026-05-05 03:50 1.0M
20260505T00Z_MSC_GDPS_WindU_IsbL-0001_LatLon0.15_PT006H.grib2 2026-05-05 03:50 507K
20260505T00Z_MSC_GDPS_WindU_IsbL-0005_LatLon0.15_PT006H.grib2 2026-05-05 03:50 701K
20260505T00Z_MSC_GDPS_WindU_IsbL-0010_LatLon0.15_PT006H.grib2 2026-05-05 03:50 712K
20260505T00Z_MSC_GDPS_WindU_IsbL-0020_LatLon0.15_PT006H.grib2 2026-05-05 03:50 740K
20260505T00Z_MSC_GDPS_WindU_IsbL-0030_LatLon0.15_PT006H.grib2 2026-05-05 03:50 749K
20260505T00Z_MSC_GDPS_WindU_IsbL-0050_LatLon0.15_PT006H.grib2 2026-05-05 03:50 779K
20260505T00Z_MSC_GDPS_WindU_IsbL-0100_LatLon0.15_PT006H.grib2 2026-05-05 03:50 920K
20260505T00Z_MSC_GDPS_WindU_IsbL-0150_LatLon0.15_PT006H.grib2 2026-05-05 03:50 1.0M
20260505T00Z_MSC_GDPS_WindU_IsbL-0175_LatLon0.15_PT006H.grib2 2026-05-05 03:50 1.0M
20260505T00Z_MSC_GDPS_WindU_IsbL-0200_LatLon0.15_PT006H.grib2 2026-05-05 03:50 828K
20260505T00Z_MSC_GDPS_WindU_IsbL-0225_LatLon0.15_PT006H.grib2 2026-05-05 03:50 843K
20260505T00Z_MSC_GDPS_WindU_IsbL-0250_LatLon0.15_PT006H.grib2 2026-05-05 03:50 906K
20260505T00Z_MSC_GDPS_WindU_IsbL-0275_LatLon0.15_PT006H.grib2 2026-05-05 03:50 933K
20260505T00Z_MSC_GDPS_WindU_IsbL-0300_LatLon0.15_PT006H.grib2 2026-05-05 03:50 929K
20260505T00Z_MSC_GDPS_WindU_IsbL-0350_LatLon0.15_PT006H.grib2 2026-05-05 03:50 890K
20260505T00Z_MSC_GDPS_WindU_IsbL-0400_LatLon0.15_PT006H.grib2 2026-05-05 03:50 894K
20260505T00Z_MSC_GDPS_WindU_IsbL-0450_LatLon0.15_PT006H.grib2 2026-05-05 03:50 897K
20260505T00Z_MSC_GDPS_WindU_IsbL-0500_LatLon0.15_PT006H.grib2 2026-05-05 03:50 1.1M
20260505T00Z_MSC_GDPS_WindU_IsbL-0550_LatLon0.15_PT006H.grib2 2026-05-05 03:50 1.1M
20260505T00Z_MSC_GDPS_WindU_IsbL-0600_LatLon0.15_PT006H.grib2 2026-05-05 03:50 1.1M
20260505T00Z_MSC_GDPS_WindU_IsbL-0650_LatLon0.15_PT006H.grib2 2026-05-05 03:50 1.2M
20260505T00Z_MSC_GDPS_WindU_IsbL-0700_LatLon0.15_PT006H.grib2 2026-05-05 03:50 1.2M
20260505T00Z_MSC_GDPS_WindU_IsbL-0750_LatLon0.15_PT006H.grib2 2026-05-05 03:50 1.3M
20260505T00Z_MSC_GDPS_WindU_IsbL-0800_LatLon0.15_PT006H.grib2 2026-05-05 03:50 1.4M
20260505T00Z_MSC_GDPS_WindU_IsbL-0850_LatLon0.15_PT006H.grib2 2026-05-05 03:50 1.4M
20260505T00Z_MSC_GDPS_WindU_IsbL-0875_LatLon0.15_PT006H.grib2 2026-05-05 03:50 1.5M
20260505T00Z_MSC_GDPS_WindU_IsbL-0900_LatLon0.15_PT006H.grib2 2026-05-05 03:50 1.5M
20260505T00Z_MSC_GDPS_WindU_IsbL-0925_LatLon0.15_PT006H.grib2 2026-05-05 03:50 1.5M
20260505T00Z_MSC_GDPS_WindU_IsbL-0950_LatLon0.15_PT006H.grib2 2026-05-05 03:50 1.4M
20260505T00Z_MSC_GDPS_WindU_IsbL-0970_LatLon0.15_PT006H.grib2 2026-05-05 03:50 1.4M
20260505T00Z_MSC_GDPS_WindU_IsbL-0985_LatLon0.15_PT006H.grib2 2026-05-05 03:50 1.4M
20260505T00Z_MSC_GDPS_WindU_IsbL-1000_LatLon0.15_PT006H.grib2 2026-05-05 03:50 1.4M
20260505T00Z_MSC_GDPS_WindU_IsbL-1015_LatLon0.15_PT006H.grib2 2026-05-05 03:50 1.3M
20260505T00Z_MSC_GDPS_WindV_AGL-10m_LatLon0.15_PT006H.grib2 2026-05-05 03:50 1.6M
20260505T00Z_MSC_GDPS_WindV_AGL-120m_LatLon0.15_PT006H.grib2 2026-05-05 03:50 958K
20260505T00Z_MSC_GDPS_WindV_AGL-40m_LatLon0.15_PT006H.grib2 2026-05-05 03:50 954K
20260505T00Z_MSC_GDPS_WindV_AGL-80m_LatLon0.15_PT006H.grib2 2026-05-05 03:50 958K
20260505T00Z_MSC_GDPS_WindV_IsbL-0001_LatLon0.15_PT006H.grib2 2026-05-05 03:50 721K
20260505T00Z_MSC_GDPS_WindV_IsbL-0005_LatLon0.15_PT006H.grib2 2026-05-05 03:50 866K
20260505T00Z_MSC_GDPS_WindV_IsbL-0010_LatLon0.15_PT006H.grib2 2026-05-05 03:50 817K
20260505T00Z_MSC_GDPS_WindV_IsbL-0020_LatLon0.15_PT006H.grib2 2026-05-05 03:50 860K
20260505T00Z_MSC_GDPS_WindV_IsbL-0030_LatLon0.15_PT006H.grib2 2026-05-05 03:50 863K
20260505T00Z_MSC_GDPS_WindV_IsbL-0050_LatLon0.15_PT006H.grib2 2026-05-05 03:50 908K
20260505T00Z_MSC_GDPS_WindV_IsbL-0100_LatLon0.15_PT006H.grib2 2026-05-05 03:50 849K
20260505T00Z_MSC_GDPS_WindV_IsbL-0150_LatLon0.15_PT006H.grib2 2026-05-05 03:50 1.0M
20260505T00Z_MSC_GDPS_WindV_IsbL-0175_LatLon0.15_PT006H.grib2 2026-05-05 03:50 802K
20260505T00Z_MSC_GDPS_WindV_IsbL-0200_LatLon0.15_PT006H.grib2 2026-05-05 03:50 828K
20260505T00Z_MSC_GDPS_WindV_IsbL-0225_LatLon0.15_PT006H.grib2 2026-05-05 03:50 899K
20260505T00Z_MSC_GDPS_WindV_IsbL-0250_LatLon0.15_PT006H.grib2 2026-05-05 03:50 903K
20260505T00Z_MSC_GDPS_WindV_IsbL-0275_LatLon0.15_PT006H.grib2 2026-05-05 03:50 930K
20260505T00Z_MSC_GDPS_WindV_IsbL-0300_LatLon0.15_PT006H.grib2 2026-05-05 03:50 926K
20260505T00Z_MSC_GDPS_WindV_IsbL-0350_LatLon0.15_PT006H.grib2 2026-05-05 03:50 939K
20260505T00Z_MSC_GDPS_WindV_IsbL-0400_LatLon0.15_PT006H.grib2 2026-05-05 03:50 886K
20260505T00Z_MSC_GDPS_WindV_IsbL-0450_LatLon0.15_PT006H.grib2 2026-05-05 03:50 889K
20260505T00Z_MSC_GDPS_WindV_IsbL-0500_LatLon0.15_PT006H.grib2 2026-05-05 03:50 1.1M
20260505T00Z_MSC_GDPS_WindV_IsbL-0550_LatLon0.15_PT006H.grib2 2026-05-05 03:50 1.1M
20260505T00Z_MSC_GDPS_WindV_IsbL-0600_LatLon0.15_PT006H.grib2 2026-05-05 03:50 1.1M
20260505T00Z_MSC_GDPS_WindV_IsbL-0650_LatLon0.15_PT006H.grib2 2026-05-05 03:50 1.2M
20260505T00Z_MSC_GDPS_WindV_IsbL-0700_LatLon0.15_PT006H.grib2 2026-05-05 03:50 1.2M
20260505T00Z_MSC_GDPS_WindV_IsbL-0750_LatLon0.15_PT006H.grib2 2026-05-05 03:50 1.3M
20260505T00Z_MSC_GDPS_WindV_IsbL-0800_LatLon0.15_PT006H.grib2 2026-05-05 03:50 1.3M
20260505T00Z_MSC_GDPS_WindV_IsbL-0850_LatLon0.15_PT006H.grib2 2026-05-05 03:50 1.4M
20260505T00Z_MSC_GDPS_WindV_IsbL-0875_LatLon0.15_PT006H.grib2 2026-05-05 03:50 1.4M
20260505T00Z_MSC_GDPS_WindV_IsbL-0900_LatLon0.15_PT006H.grib2 2026-05-05 03:50 1.4M
20260505T00Z_MSC_GDPS_WindV_IsbL-0925_LatLon0.15_PT006H.grib2 2026-05-05 03:50 1.4M
20260505T00Z_MSC_GDPS_WindV_IsbL-0950_LatLon0.15_PT006H.grib2 2026-05-05 03:50 1.4M
20260505T00Z_MSC_GDPS_WindV_IsbL-0970_LatLon0.15_PT006H.grib2 2026-05-05 03:50 1.4M
20260505T00Z_MSC_GDPS_WindV_IsbL-0985_LatLon0.15_PT006H.grib2 2026-05-05 03:50 1.4M
20260505T00Z_MSC_GDPS_WindV_IsbL-1000_LatLon0.15_PT006H.grib2 2026-05-05 03:50 1.4M
20260505T00Z_MSC_GDPS_WindV_IsbL-1015_LatLon0.15_PT006H.grib2 2026-05-05 03:50 1.3M